Hourly Data Report for August 05, 2020

SVARTEVAEG
NUNAVUT
Current Station Operator: ECCC - MSC

81°09'39.000" N
91°48'59.060" W
72.00 m
2403833
71872
NSG

Download Data

Hourly Data (August 2020)
Hourly Data Report for August 5, 2020
TIME Temp Definition
°C
Dew Point Definition
°C
Rel Hum Definition
%
Wind Dir Definition
10's deg

Wind Spd Definition
km/h
Visibility Definition
km
Stn Press Definition
kPa
Hmdx Definition


Wind Chill Definition


Weather Definition


00:00 -0.7 -2.0 91 32 25   100.44   -7 LegendNANA
01:00 -0.9 -2.1 92 33 25   100.44   -7 LegendNANA
02:00 -1.2 -1.9 95 33 27   100.45   -8 LegendNANA
03:00 -1.1 -1.8 95 33 28   100.47   -8 LegendNANA
04:00 -1.2 -1.8 96 33 25   100.48   -7 LegendNANA
05:00 -1.3 -1.6 98 34 29   100.46   -8 LegendNANA
06:00 -1.4 -1.9 96 34 27   100.45   -8 LegendNANA
07:00 -0.1 -1.1 93 34 28   100.42   -6 LegendNANA
08:00 0.7 -0.9 89 34 29   100.41     LegendNANA
09:00 1.4 -0.8 85 34 28   100.38     LegendNANA
10:00 1.5 -1.1 83 34 33   100.37     LegendNANA
11:00 1.3 -0.9 85 33 32   100.35     LegendNANA
12:00 1.1 -1.7 82 33 32   100.36     LegendNANA
13:00 1.0 -1.2 85 33 40   100.33     LegendNANA
14:00 1.1 -1.2 84 33 40   100.32     LegendNANA
15:00 0.9 -1.7 83 33 35   100.31     LegendNANA
16:00 0.5 -1.4 87 32 31   100.29     LegendNANA
17:00 0.2 -1.5 88 33 38   100.26     LegendNANA
18:00 -0.2 -2.0 88 33 37   100.24   -7 LegendNANA
19:00 -0.9 -1.9 93 33 36   100.21   -8 LegendNANA
20:00 -1.3 -2.2 93 32 34   100.19   -9 LegendNANA
21:00 -1.4 -2.2 94 32 34   100.14   -9 LegendNANA
22:00 -1.5 -2.1 95 33 31   100.12   -9 LegendNANA
23:00 -1.6 -2.5 94 33 35   100.05   -9 LegendNANA

Notes on Data Quality.

Legend

  • E = Estimated
  • M = Missing
  • NA = Not Available*
  • [empty] = Indicates an unobserved value
Date modified: